DELTA 1 DEB, 3417

Orbit data source: Space-Track

DELTA 1 DEB, 3417 is space debris in SSO originally from a launch on Fri, 16 Aug 1968 UTC launched from the Air Force Western Test Range (AFWTR). Debris objects in space refer to the collection of defunct objects orbiting the Earth. Examples of debris include non-operational satellites, rocket bodies, and fragments generated from explosions, collisions, or faulty payload assembly.

Loading next visibility...
Identifier
3417, 1968-069D
Orbit
SSO
Country
Flag of USUS
Related business
Manufacturer
Unknown
Mission
Spacecraft
Bus & Motor
Unknown
Mass
Unknown
Launch date (UTC)
1968-08-16 (58 years ago)
Launch vehicle
Unknown
Launch site
Air Force Western Test Range (AFWTR)
Object type
Payload
Rocket body
Debris
Shape & HBR
Unknown shape, 0.1 m
Radar Cross Section
Small (<0.1 m²)

Expand to show TLE details & history
Last TLE update: 3 days ago

TLE from 3 days ago
0 DELTA 1 DEB
1 03417U 68069D   26118.31603586 -.00000032  00000-0  97591-4 0  9995
2 03417 102.1829  62.8283 0066138 148.2573   5.5519 12.39780329916659
Epoch: 2026-04-28T07:35Z
TLE epoch observation values (Epoch: 2026-04-28T07:35:05.498Z)
Latitude
25.51733°
Longitude
-81.35169°
Altitude
1,458.386 km
Speed
7.159 km/s
True Right ascension
16h 34m 51s
True Declination
25° 23' 45"
Sunlit
Object was in full shadow at epoch
Visualization orbit readout
Latitude
Unknown
Longitude
Unknown
Altitude
Unknown
Speed
Unknown
Apparent Right ascension
Unknown
Apparent Declination
Unknown
Sunlit
N/A
Visualization observer readout
Local Sidereal Time
16:51:30
Azimuth
Unknown
Elevation
Unknown
Doppler factor
Unknown
Orbital elements
Apogee altitude
1,557.259 km
Perigee altitude
1,452.982 km
Semi-major axis
7,883.257 km
Eccentricity
0.00661
Inclination
102.1829°
RAAN
62.8283°
Arg. of periapsis
148.2573°
True anomaly
5.62583°
Mean anomaly
5.5519°
Eccentric anomaly
5.5888°
Mean motion
3.10088 °/min
Orbital period
116.1 mins
BSTAR
0.000097591
Loading maneuver chart data...
Computing Atmospheric mass density...
Loading historical data...
Loading historical data...
Loading historical data...
Loading historical data...
Loading historical data...
Loading historical data...
Loading historical data...

Documentation

Showing up to 5 results
|